,,,PA_Meas_PMT16A,,PR_Meas_QMR101_102,,RH_Meas_QMH101,,SR_Meas_QMS101,,TA_Meas_QMH101,,GenWind,,GenWind,
date,time,status,PA,status,PR,status,RH,status,SR,status,TA,status,DirAvg,status,SpdAvg,
2012-03-23, 00:00:04,VALID,1010.41,VALID,0,VALID,104,VALID,0,VALID,23.2654,VALID,214,VALID,0,
2012-03-23, 00:01:04,VALID,1010.39,VALID,0,VALID,104,VALID,0,VALID,23.2459,VALID,214,VALID,0.205078,
2012-03-23, 00:02:04,VALID,1010.4,VALID,0,VALID,104,VALID,0,VALID,23.2051,VALID,214,VALID,0.05625,
2012-03-23, 00:03:04,VALID,1010.37,VALID,0,VALID,104,VALID,0,VALID,23.1874,VALID,214,VALID,0,
2012-03-23, 00:04:04,VALID,1010.36,VALID,0,VALID,104,VALID,0,VALID,23.1874,VALID,214,VALID,0,
2012-03-23, 00:05:04,VALID,1010.39,VALID,0,VALID,104,VALID,0,VALID,23.2087,VALID,214,VALID,0,
2012-03-23, 00:06:04,VALID,1010.36,VALID,0,VALID,104,VALID,0,VALID,23.1892,VALID,214,VALID,0,
2012-03-23, 00:07:04,VALID,1010.35,VALID,0,VALID,104,VALID,0,VALID,23.1485,VALID,214,VALID,0.06875,
2012-03-23, 00:08:04,VALID,1010.33,VALID,0,VALID,104,VALID,0,VALID,23.1697,VALID,214,VALID,0.244922,
2012-03-23, 00:09:04,VALID,1010.29,VALID,0,VALID,104,VALID,0,VALID,23.1874,VALID,214,VALID,0,
2012-03-23, 00:10:04,VALID,1010.31,VALID,0,VALID,104,VALID,0,VALID,23.1874,VALID,214,VALID,0,
2012-03-23, 00:11:04,VALID,1010.29,VALID,0,VALID,104,VALID,0,VALID,23.1874,VALID,214,VALID,0,
2012-03-23, 00:12:04,VALID,1010.25,VALID,0,VALID,104,VALID,0,VALID,23.2069,VALID,214,VALID,0,
2012-03-23, 00:13:04,VALID,1010.27,VALID,0,VALID,104,VALID,0,VALID,23.2069,VALID,214,VALID,0,
2012-03-23, 00:14:04,VALID,1010.25,VALID,0,VALID,104,VALID,0,VALID,23.2264,VALID,214,VALID,0,
2012-03-23, 00:15:04,VALID,1010.25,VALID,0,VALID,104,VALID,0,VALID,23.2476,VALID,214,VALID,0,
2012-03-23, 00:16:04,VALID,1010.26,VALID,0,VALID,104,VALID,0,VALID,23.2671,VALID,214,VALID,0,
2012-03-23, 00:17:04,VALID,1010.23,VALID,0,VALID,104,VALID,0,VALID,23.2459,VALID,214,VALID,0,
2012-03-23, 00:18:04,VALID,1010.23,VALID,0,VALID,104,VALID,0,VALID,23.2654,VALID,214,VALID,0,
2012-03-23, 00:19:04,VALID,1010.21,VALID,0,VALID,104,VALID,0,VALID,23.2866,VALID,214,VALID,0,
2012-03-23, 00:20:04,VALID,1010.19,VALID,0,VALID,104,VALID,0,VALID,23.2654,VALID,214,VALID,0,
2012-03-23, 00:21:04,VALID,1010.17,VALID,0,VALID,104,VALID,0,VALID,23.2866,VALID,214,VALID,0,
2012-03-23, 00:22:04,VALID,1010.18,VALID,0,VALID,104,VALID,0,VALID,23.2866,VALID,214,VALID,0.180078,
2012-03-23, 00:23:04,VALID,1010.18,VALID,0,VALID,104,VALID,0,VALID,23.2654,VALID,214,VALID,0.0714844,
2012-03-23, 00:24:04,VALID,1010.17,VALID,0,VALID,104,VALID,0,VALID,23.2654,VALID,214,VALID,0,
2012-03-23, 00:25:04,VALID,1010.17,VALID,0,VALID,104,VALID,0,VALID,23.2866,VALID,214,VALID,0,
2012-03-23, 00:26:04,VALID,1010.18,VALID,0,VALID,104,VALID,0,VALID,23.2654,VALID,214,VALID,0,
2012-03-23, 00:27:04,VALID,1010.18,VALID,0,VALID,104,VALID,0,VALID,23.2654,VALID,214,VALID,0,
2012-03-23, 00:28:04,VALID,1010.15,VALID,0,VALID,104,VALID,0,VALID,23.2654,VALID,214,VALID,0,
2012-03-23, 00:29:04,VALID,1010.13,VALID,0,VALID,104,VALID,0,VALID,23.1874,VALID,214,VALID,0,
2012-03-23, 00:30:04,VALID,1010.11,VALID,0,VALID,104,VALID,0,VALID,23.1874,VALID,214,VALID,0.19375,
2012-03-23, 00:31:04,VALID,1010.09,VALID,0,VALID,104,VALID,0,VALID,23.1892,VALID,214,VALID,0.0875,
2012-03-23, 00:32:04,VALID,1010.07,VALID,0,VALID,104,VALID,0,VALID,23.1679,VALID,214,VALID,0,
2012-03-23, 00:33:04,VALID,1010.05,VALID,0,VALID,104,VALID,0,VALID,23.1485,VALID,214,VALID,0,
2012-03-23, 00:34:04,VALID,1010.09,VALID,0,VALID,104,VALID,0,VALID,23.129,VALID,214,VALID,0,
2012-03-23, 00:35:04,VALID,1010.03,VALID,0,VALID,104,VALID,0,VALID,23.129,VALID,214,VALID,0,
2012-03-23, 00:36:04,VALID,1010,VALID,0,VALID,104,VALID,0,VALID,23.1485,VALID,214,VALID,0,
2012-03-23, 00:37:04,VALID,1009.98,VALID,0,VALID,104,VALID,0,VALID,23.1892,VALID,214,VALID,0,
2012-03-23, 00:38:04,VALID,1009.98,VALID,0,VALID,104,VALID,0,VALID,23.1485,VALID,214,VALID,0,
2012-03-23, 00:39:04,VALID,1009.98,VALID,0,VALID,104,VALID,0,VALID,23.129,VALID,214,VALID,0,
2012-03-23, 00:40:04,VALID,1009.96,VALID,0,VALID,104,VALID,0,VALID,23.1095,VALID,214,VALID,0,
2012-03-23, 00:41:04,VALID,1009.95,VALID,0,VALID,104,VALID,0,VALID,23.09,VALID,214,VALID,0,
2012-03-23, 00:42:04,VALID,1009.95,VALID,0,VALID,104,VALID,0,VALID,23.1095,VALID,214,VALID,0,
2012-03-23, 00:43:04,VALID,1009.92,VALID,0,VALID,104,VALID,0,VALID,23.1095,VALID,214,VALID,0,
2012-03-23, 00:44:04,VALID,1009.93,VALID,0,VALID,104,VALID,0,VALID,23.1095,VALID,214,VALID,0,
2012-03-23, 00:45:04,VALID,1009.91,VALID,0,VALID,104,VALID,0,VALID,23.1095,VALID,214,VALID,0,
2012-03-23, 00:46:04,VALID,1009.88,VALID,0,VALID,104,VALID,0,VALID,23.1095,VALID,214,VALID,0.121875,
2012-03-23, 00:47:04,VALID,1009.87,VALID,0,VALID,104,VALID,0,VALID,23.09,VALID,214,VALID,0.198437,
2012-03-23, 00:48:04,VALID,1009.86,VALID,0,VALID,104,VALID,0,VALID,23.09,VALID,214,VALID,0.121875,
2012-03-23, 00:49:04,VALID,1009.86,VALID,0,VALID,104,VALID,0,VALID,23.1307,VALID,214,VALID,0,
2012-03-23, 00:50:04,VALID,1009.84,VALID,0,VALID,104,VALID,0,VALID,23.1095,VALID,214,VALID,0,
2012-03-23, 00:51:04,VALID,1009.83,VALID,0,VALID,104,VALID,0.112112,VALID,23.1077,VALID,214,VALID,0,
2012-03-23, 00:52:04,VALID,1009.83,VALID,0,VALID,104,VALID,0.112112,VALID,23.0883,VALID,214,VALID,0,
2012-03-23, 00:53:04,VALID,1009.87,VALID,0,VALID,104,VALID,0.112112,VALID,23.0883,VALID,214,VALID,0,
2012-03-23, 00:54:04,VALID,1009.86,VALID,0,VALID,104,VALID,0,VALID,23.1095,VALID,214,VALID,0,
2012-03-23, 00:55:04,VALID,1009.83,VALID,0,VALID,104,VALID,0.112112,VALID,23.1077,VALID,214,VALID,0,
2012-03-23, 00:56:04,VALID,1009.83,VALID,0,VALID,104,VALID,0.112112,VALID,23.0883,VALID,214,VALID,0,
2012-03-23, 00:57:04,VALID,1009.84,VALID,0,VALID,104,VALID,0.112112,VALID,23.0883,VALID,214,VALID,0,
2012-03-23, 00:58:04,VALID,1009.83,VALID,0,VALID,104,VALID,0.112112,VALID,23.1095,VALID,214,VALID,0,
2012-03-23, 00:59:04,VALID,1009.85,VALID,0,VALID,104,VALID,0.112112,VALID,23.1095,VALID,214,VALID,0,
2012-03-23, 01:00:04,VALID,1009.89,VALID,0,VALID,104,VALID,0.112112,VALID,23.0883,VALID,214,VALID,0,
2012-03-23, 01:01:04,VALID,1009.9,VALID,0,VALID,104,VALID,0.112112,VALID,23.0705,VALID,214,VALID,0,
2012-03-23, 01:02:04,VALID,1009.9,VALID,0,VALID,104,VALID,0.112112,VALID,23.0493,VALID,214,VALID,0,
2012-03-23, 01:03:04,VALID,1009.92,VALID,0,VALID,104,VALID,0.112112,VALID,23.0298,VALID,214,VALID,0,
2012-03-23, 01:04:04,VALID,1009.91,VALID,0,VALID,104,VALID,0.112112,VALID,23.0493,VALID,214,VALID,0,
2012-03-23, 01:05:04,VALID,1009.9,VALID,0,VALID,104,VALID,0.112112,VALID,23.0688,VALID,214,VALID,0,
2012-03-23, 01:06:04,VALID,1009.91,VALID,0,VALID,104,VALID,0,VALID,23.09,VALID,214,VALID,0,
2012-03-23, 01:07:04,VALID,1009.88,VALID,0,VALID,104,VALID,0,VALID,23.09,VALID,214,VALID,0,
2012-03-23, 01:08:04,VALID,1009.87,VALID,0,VALID,104,VALID,0,VALID,23.1112,VALID,214,VALID,0,
2012-03-23, 01:09:04,VALID,1009.82,VALID,0,VALID,104,VALID,0,VALID,23.09,VALID,214,VALID,0.148047,
2012-03-23, 01:10:04,VALID,1009.84,VALID,0,VALID,104,VALID,0,VALID,23.1307,VALID,214,VALID,0,
2012-03-23, 01:11:04,VALID,1009.85,VALID,0,VALID,104,VALID,0,VALID,23.1095,VALID,214,VALID,0,
2012-03-23, 01:12:04,VALID,1009.82,VALID,0,VALID,104,VALID,0,VALID,23.1697,VALID,214,VALID,0,
2012-03-23, 01:13:04,VALID,1009.84,VALID,0,VALID,104,VALID,0,VALID,23.1679,VALID,214,VALID,0,
2012-03-23, 01:14:04,VALID,1009.81,VALID,0,VALID,104,VALID,0,VALID,23.1874,VALID,214,VALID,0,
2012-03-23, 01:15:04,VALID,1009.81,VALID,0,VALID,104,VALID,0,VALID,23.2069,VALID,214,VALID,0,
2012-03-23, 01:16:04,VALID,1009.82,VALID,0,VALID,104,VALID,0,VALID,23.2264,VALID,214,VALID,0,
2012-03-23, 01:17:04,VALID,1009.8,VALID,0,VALID,104,VALID,0,VALID,23.2654,VALID,214,VALID,0,
2012-03-23, 01:18:04,VALID,1009.81,VALID,0,VALID,104,VALID,0,VALID,23.2848,VALID,214,VALID,0,
2012-03-23, 01:19:04,VALID,1009.78,VALID,0,VALID,104,VALID,0,VALID,23.3256,VALID,214,VALID,0,
2012-03-23, 01:20:04,VALID,1009.75,VALID,0,VALID,104,VALID,0,VALID,23.3238,VALID,214,VALID,0,
2012-03-23, 01:21:04,VALID,1009.77,VALID,0,VALID,104,VALID,0,VALID,23.3433,VALID,214,VALID,0.246484,
2012-03-23, 01:22:04,VALID,1009.74,VALID,0,VALID,104,VALID,0,VALID,23.3433,VALID,214,VALID,0.337109,
2012-03-23, 01:23:04,VALID,1009.71,VALID,0,VALID,104,VALID,0,VALID,23.3433,VALID,214,VALID,0.0992187,
2012-03-23, 01:24:04,VALID,1009.7,VALID,0,VALID,104,VALID,0,VALID,23.3628,VALID,214,VALID,0,
2012-03-23, 01:25:04,VALID,1009.69,VALID,0,VALID,104,VALID,0,VALID,23.3433,VALID,214,VALID,0,
2012-03-23, 01:26:04,VALID,1009.66,VALID,0,VALID,104,VALID,0,VALID,23.3645,VALID,214,VALID,0,
2012-03-23, 01:27:04,VALID,1009.66,VALID,0,VALID,104,VALID,0,VALID,23.3433,VALID,214,VALID,0,
2012-03-23, 01:28:04,VALID,1009.66,VALID,0,VALID,104,VALID,0,VALID,23.3238,VALID,214,VALID,0,
2012-03-23, 01:29:04,VALID,1009.65,VALID,0,VALID,104,VALID,0,VALID,23.3043,VALID,214,VALID,0,
2012-03-23, 01:30:04,VALID,1009.67,VALID,0,VALID,104,VALID,0,VALID,23.2848,VALID,214,VALID,0,
2012-03-23, 01:31:04,VALID,1009.62,VALID,0,VALID,104,VALID,0,VALID,23.2654,VALID,214,VALID,0,
2012-03-23, 01:32:04,VALID,1009.63,VALID,0,VALID,104,VALID,0,VALID,23.2654,VALID,214,VALID,0,
2012-03-23, 01:33:04,VALID,1009.61,VALID,0,VALID,104,VALID,0,VALID,23.2459,VALID,214,VALID,0,
2012-03-23, 01:34:04,VALID,1009.6,VALID,0,VALID,104,VALID,0,VALID,23.2654,VALID,214,VALID,0,
2012-03-23, 01:35:04,VALID,1009.61,VALID,0,VALID,104,VALID,0,VALID,23.2264,VALID,214,VALID,0,
2012-03-23, 01:36:04,VALID,1009.59,VALID,0,VALID,104,VALID,0,VALID,23.2264,VALID,214,VALID,0,
2012-03-23, 01:37:04,VALID,1009.56,VALID,0,VALID,104,VALID,0,VALID,23.2069,VALID,214,VALID,0,
2012-03-23, 01:38:04,VALID,1009.55,VALID,0,VALID,104,VALID,0,VALID,23.2069,VALID,214,VALID,0,
2012-03-23, 01:39:04,VALID,1009.54,VALID,0,VALID,104,VALID,0,VALID,23.1874,VALID,214,VALID,0,
2012-03-23, 01:40:04,VALID,1009.54,VALID,0,VALID,104,VALID,0,VALID,23.1874,VALID,214,VALID,0,
2012-03-23, 01:41:04,VALID,1009.53,VALID,0,VALID,104,VALID,0,VALID,23.129,VALID,214,VALID,0,
2012-03-23, 01:42:04,VALID,1009.56,VALID,0,VALID,104,VALID,0,VALID,23.1095,VALID,214,VALID,0,
2012-03-23, 01:43:04,VALID,1009.57,VALID,0,VALID,104,VALID,0,VALID,23.0723,VALID,214,VALID,0,
2012-03-23, 01:44:04,VALID,1009.53,VALID,0,VALID,104,VALID,0,VALID,23.0705,VALID,214,VALID,0,
2012-03-23, 01:45:04,VALID,1009.55,VALID,0,VALID,104,VALID,0,VALID,23.0705,VALID,214,VALID,0,
2012-03-23, 01:46:04,VALID,1009.51,VALID,0,VALID,104,VALID,0,VALID,23.0705,VALID,214,VALID,0,
2012-03-23, 01:47:04,VALID,1009.51,VALID,0,VALID,104,VALID,0,VALID,23.0528,VALID,214,VALID,0,
2012-03-23, 01:48:04,VALID,1009.49,VALID,0,VALID,104,VALID,0,VALID,23.0316,VALID,214,VALID,0,
2012-03-23, 01:49:04,VALID,1009.5,VALID,0,VALID,104,VALID,0,VALID,22.9926,VALID,214,VALID,0,
2012-03-23, 01:50:04,VALID,1009.49,VALID,0,VALID,104,VALID,0,VALID,22.9536,VALID,214,VALID,0,
2012-03-23, 01:51:04,VALID,1009.49,VALID,0,VALID,104,VALID,0,VALID,22.9342,VALID,214,VALID,0,
2012-03-23, 01:52:04,VALID,1009.5,VALID,0,VALID,104,VALID,0,VALID,22.9342,VALID,214,VALID,0,
2012-03-23, 01:53:04,VALID,1009.54,VALID,0,VALID,104,VALID,0,VALID,22.8952,VALID,214,VALID,0,
2012-03-23, 01:54:04,VALID,1009.53,VALID,0,VALID,104,VALID,0,VALID,22.8952,VALID,214,VALID,0,
2012-03-23, 01:55:04,VALID,1009.52,VALID,0,VALID,104,VALID,0,VALID,22.9342,VALID,214,VALID,0,
2012-03-23, 01:56:04,VALID,1009.5,VALID,0,VALID,104,VALID,0,VALID,22.9536,VALID,214,VALID,0,
2012-03-23, 01:57:04,VALID,1009.52,VALID,0,VALID,104,VALID,0,VALID,22.9342,VALID,214,VALID,0,
2012-03-23, 01:58:04,VALID,1009.51,VALID,0,VALID,104,VALID,0,VALID,22.8952,VALID,214,VALID,0,
2012-03-23, 01:59:04,VALID,1009.49,VALID,0,VALID,104,VALID,0,VALID,22.8757,VALID,214,VALID,0,
2012-03-23, 02:00:04,VALID,1009.5,VALID,0,VALID,104,VALID,0,VALID,22.8969,VALID,214,VALID,0,
2012-03-23, 02:01:04,VALID,1009.5,VALID,0,VALID,104,VALID,0,VALID,22.8757,VALID,214,VALID,0,
2012-03-23, 02:02:04,VALID,1009.49,VALID,0,VALID,104,VALID,0,VALID,22.8562,VALID,214,VALID,0,
2012-03-23, 02:03:04,VALID,1009.48,VALID,0,VALID,104,VALID,0,VALID,22.8952,VALID,214,VALID,0,
2012-03-23, 02:04:04,VALID,1009.47,VALID,0,VALID,104,VALID,0,VALID,22.9164,VALID,214,VALID,0,
2012-03-23, 02:05:04,VALID,1009.49,VALID,0,VALID,104,VALID,0,VALID,22.9359,VALID,214,VALID,0,
2012-03-23, 02:06:04,VALID,1009.46,VALID,0,VALID,104,VALID,0,VALID,22.9147,VALID,214,VALID,0,
2012-03-23, 02:07:04,VALID,1009.48,VALID,0,VALID,104,VALID,0,VALID,22.9164,VALID,214,VALID,0,
2012-03-23, 02:08:04,VALID,1009.43,VALID,0,VALID,104,VALID,0,VALID,22.8545,VALID,214,VALID,0,
2012-03-23, 02:09:04,VALID,1009.45,VALID,0,VALID,104,VALID,0,VALID,22.8562,VALID,214,VALID,0,
2012-03-23, 02:10:04,VALID,1009.46,VALID,0,VALID,104,VALID,0,VALID,22.8173,VALID,214,VALID,0,
2012-03-23, 02:11:04,VALID,1009.42,VALID,0,VALID,104,VALID,0,VALID,22.7978,VALID,214,VALID,0,
2012-03-23, 02:12:04,VALID,1009.43,VALID,0,VALID,104,VALID,0,VALID,22.7978,VALID,214,VALID,0,
2012-03-23, 02:13:04,VALID,1009.43,VALID,0,VALID,104,VALID,0,VALID,22.7588,VALID,214,VALID,0,
2012-03-23, 02:14:04,VALID,1009.44,VALID,0,VALID,104,VALID,0,VALID,22.7783,VALID,214,VALID,0,
2012-03-23, 02:15:04,VALID,1009.44,VALID,0,VALID,104,VALID,0,VALID,22.7588,VALID,214,VALID,0,
2012-03-23, 02:16:04,VALID,1009.41,VALID,0,VALID,104,VALID,0,VALID,22.7394,VALID,214,VALID,0,
2012-03-23, 02:17:04,VALID,1009.42,VALID,0,VALID,104,VALID,0,VALID,22.7199,VALID,214,VALID,0,
2012-03-23, 02:18:04,VALID,1009.43,VALID,0,VALID,104,VALID,0,VALID,22.7606,VALID,214,VALID,0,
2012-03-23, 02:19:04,VALID,1009.39,VALID,0,VALID,104,VALID,0,VALID,22.7606,VALID,214,VALID,0,
2012-03-23, 02:20:04,VALID,1009.4,VALID,0,VALID,104,VALID,0,VALID,22.7606,VALID,214,VALID,0,
2012-03-23, 02:21:04,VALID,1009.39,VALID,0,VALID,104,VALID,0,VALID,22.7588,VALID,214,VALID,0,
2012-03-23, 02:22:04,VALID,1009.39,VALID,0,VALID,104,VALID,0,VALID,22.7588,VALID,214,VALID,0,
2012-03-23, 02:23:04,VALID,1009.36,VALID,0,VALID,104,VALID,0,VALID,22.7995,VALID,214,VALID,0.375391,
2012-03-23, 02:24:04,VALID,1009.36,VALID,0,VALID,104,VALID,0,VALID,22.7995,VALID,214,VALID,0.304688,
2012-03-23, 02:25:04,VALID,1009.34,VALID,0,VALID,104,VALID,0,VALID,22.7783,VALID,214,VALID,0.163281,
2012-03-23, 02:26:04,VALID,1009.34,VALID,0,VALID,104,VALID,0,VALID,22.7783,VALID,214,VALID,0.451953,
2012-03-23, 02:27:04,VALID,1009.37,VALID,0,VALID,104,VALID,0,VALID,22.7995,VALID,214,VALID,0.248828,
2012-03-23, 02:28:04,VALID,1009.39,VALID,0,VALID,104,VALID,0,VALID,22.7783,VALID,214,VALID,0.289844,
2012-03-23, 02:29:04,VALID,1009.36,VALID,0,VALID,104,VALID,0,VALID,22.7995,VALID,214,VALID,0.348047,
2012-03-23, 02:30:04,VALID,1009.38,VALID,0,VALID,104,VALID,0,VALID,22.7995,VALID,147,VALID,0.605078,
2012-03-23, 02:31:04,VALID,1009.39,VALID,0,VALID,104,VALID,0,VALID,22.7995,VALID,99,VALID,0.379297,
2012-03-23, 02:32:04,VALID,1009.41,VALID,0,VALID,104,VALID,0,VALID,22.78,VALID,99,VALID,0.298438,
2012-03-23, 02:33:04,VALID,1009.42,VALID,0,VALID,104,VALID,0,VALID,22.7995,VALID,78,VALID,0.364062,
2012-03-23, 02:34:04,VALID,1009.39,VALID,0,VALID,104,VALID,0,VALID,22.7783,VALID,78,VALID,0.351563,
2012-03-23, 02:35:04,VALID,1009.37,VALID,0,VALID,104,VALID,0,VALID,22.7978,VALID,75,VALID,0.591406,
2012-03-23, 02:36:04,VALID,1009.33,VALID,0,VALID,104,VALID,0,VALID,22.819,VALID,73,VALID,0.634375,
2012-03-23, 02:37:04,VALID,1009.34,VALID,0,VALID,104,VALID,0,VALID,22.819,VALID,72,VALID,0.272656,
2012-03-23, 02:38:04,VALID,1009.31,VALID,0,VALID,104,VALID,0,VALID,22.7978,VALID,72,VALID,0.021875,
2012-03-23, 02:39:04,VALID,1009.33,VALID,0,VALID,104,VALID,0,VALID,22.7783,VALID,72,VALID,0,
2012-03-23, 02:40:04,VALID,1009.33,VALID,0,VALID,104,VALID,0,VALID,22.7394,VALID,72,VALID,0,
2012-03-23, 02:41:04,VALID,1009.3,VALID,0,VALID,104,VALID,0,VALID,22.7004,VALID,72,VALID,0,
2012-03-23, 02:42:04,VALID,1009.34,VALID,0,VALID,104,VALID,0,VALID,22.7004,VALID,72,VALID,0,
2012-03-23, 02:43:04,VALID,1009.35,VALID,0,VALID,104,VALID,0,VALID,22.7216,VALID,72,VALID,0,
2012-03-23, 02:44:04,VALID,1009.38,VALID,0,VALID,104,VALID,0,VALID,22.7021,VALID,72,VALID,0.319922,
2012-03-23, 02:45:04,VALID,1009.33,VALID,0,VALID,104,VALID,0,VALID,22.7004,VALID,72,VALID,0.35625,
2012-03-23, 02:46:04,VALID,1009.38,VALID,0,VALID,104,VALID,0,VALID,22.7021,VALID,72,VALID,0.326953,
2012-03-23, 02:47:04,VALID,1009.39,VALID,0,VALID,104,VALID,0,VALID,22.6809,VALID,72,VALID,0.176563,
2012-03-23, 02:48:04,VALID,1009.41,VALID,0,VALID,104,VALID,0,VALID,22.6826,VALID,72,VALID,0.112891,
2012-03-23, 02:49:04,VALID,1009.4,VALID,0,VALID,104,VALID,0,VALID,22.6809,VALID,72,VALID,0.183203,
2012-03-23, 02:50:04,VALID,1009.44,VALID,0,VALID,104,VALID,0,VALID,22.6809,VALID,72,VALID,0.180469,
2012-03-23, 02:51:04,VALID,1009.45,VALID,0,VALID,104,VALID,0.112112,VALID,22.6597,VALID,72,VALID,0,
2012-03-23, 02:52:04,VALID,1009.47,VALID,0,VALID,104,VALID,0.112112,VALID,22.6402,VALID,72,VALID,0,
2012-03-23, 02:53:04,VALID,1009.48,VALID,0,VALID,104,VALID,0,VALID,22.6208,VALID,72,VALID,0,
2012-03-23, 02:54:04,VALID,1009.47,VALID,0,VALID,104,VALID,0,VALID,22.5818,VALID,72,VALID,0,
2012-03-23, 02:55:04,VALID,1009.5,VALID,0,VALID,104,VALID,0,VALID,22.5818,VALID,72,VALID,0,
2012-03-23, 02:56:04,VALID,1009.5,VALID,0,VALID,104,VALID,0.112112,VALID,22.5623,VALID,72,VALID,0,
2012-03-23, 02:57:04,VALID,1009.53,VALID,0,VALID,104,VALID,0,VALID,22.5623,VALID,72,VALID,0,
2012-03-23, 02:58:04,VALID,1009.53,VALID,0,VALID,104,VALID,0.112112,VALID,22.6013,VALID,72,VALID,0,
2012-03-23, 02:59:04,VALID,1009.51,VALID,0,VALID,104,VALID,0,VALID,22.5818,VALID,72,VALID,0,
2012-03-23, 03:00:04,VALID,1009.54,VALID,0,VALID,104,VALID,0,VALID,22.6225,VALID,72,VALID,0,
2012-03-23, 03:01:04,VALID,1009.56,VALID,0,VALID,104,VALID,0.112112,VALID,22.6225,VALID,72,VALID,0,
2012-03-23, 03:02:04,VALID,1009.55,VALID,0,VALID,104,VALID,0.112112,VALID,22.6225,VALID,72,VALID,0,
2012-03-23, 03:03:04,VALID,1009.55,VALID,0,VALID,104,VALID,0.112112,VALID,22.5818,VALID,72,VALID,0,
2012-03-23, 03:04:04,VALID,1009.54,VALID,0,VALID,104,VALID,0.112112,VALID,22.5429,VALID,72,VALID,0,
2012-03-23, 03:05:04,VALID,1009.57,VALID,0,VALID,104,VALID,0.112112,VALID,22.564,VALID,72,VALID,0,
2012-03-23, 03:06:04,VALID,1009.57,VALID,0,VALID,104,VALID,0,VALID,22.5251,VALID,72,VALID,0,
2012-03-23, 03:07:04,VALID,1009.56,VALID,0,VALID,104,VALID,0,VALID,22.5056,VALID,72,VALID,0,
2012-03-23, 03:08:04,VALID,1009.59,VALID,0,VALID,104,VALID,0,VALID,22.4861,VALID,72,VALID,0,
2012-03-23, 03:09:04,VALID,1009.57,VALID,0,VALID,104,VALID,0,VALID,22.4667,VALID,72,VALID,0,
2012-03-23, 03:10:04,VALID,1009.57,VALID,0,VALID,104,VALID,0,VALID,22.4667,VALID,72,VALID,0,
2012-03-23, 03:11:04,VALID,1009.55,VALID,0,VALID,104,VALID,0,VALID,22.4667,VALID,72,VALID,0,
2012-03-23, 03:12:04,VALID,1009.53,VALID,0,VALID,104,VALID,0,VALID,22.4684,VALID,72,VALID,0,
2012-03-23, 03:13:04,VALID,1009.58,VALID,0,VALID,104,VALID,0,VALID,22.4878,VALID,72,VALID,0,
2012-03-23, 03:14:04,VALID,1009.57,VALID,0,VALID,104,VALID,0,VALID,22.4861,VALID,72,VALID,0,
2012-03-23, 03:15:04,VALID,1009.58,VALID,0,VALID,104,VALID,0,VALID,22.5251,VALID,72,VALID,0,
2012-03-23, 03:16:04,VALID,1009.59,VALID,0,VALID,104,VALID,0,VALID,22.5251,VALID,72,VALID,0,
2012-03-23, 03:17:04,VALID,1009.64,VALID,0,VALID,104,VALID,0,VALID,22.5073,VALID,72,VALID,0,
2012-03-23, 03:18:04,VALID,1009.64,VALID,0,VALID,104,VALID,0,VALID,22.4472,VALID,72,VALID,0,
2012-03-23, 03:19:04,VALID,1009.65,VALID,0,VALID,104,VALID,0,VALID,22.4472,VALID,72,VALID,0,
2012-03-23, 03:20:04,VALID,1009.65,VALID,0,VALID,104,VALID,0,VALID,22.4489,VALID,72,VALID,0,
2012-03-23, 03:21:04,VALID,1009.63,VALID,0,VALID,104,VALID,0.112112,VALID,22.4065,VALID,72,VALID,0,
2012-03-23, 03:22:04,VALID,1009.66,VALID,0,VALID,104,VALID,0.112112,VALID,22.426,VALID,72,VALID,0,
2012-03-23, 03:23:04,VALID,1009.69,VALID,0,VALID,104,VALID,0.112112,VALID,22.4472,VALID,72,VALID,0,
2012-03-23, 03:24:04,VALID,1009.7,VALID,0,VALID,104,VALID,0,VALID,22.426,VALID,72,VALID,0,
2012-03-23, 03:25:04,VALID,1009.68,VALID,0,VALID,104,VALID,0.112112,VALID,22.465,VALID,72,VALID,0,
2012-03-23, 03:26:04,VALID,1009.71,VALID,0,VALID,104,VALID,0.112112,VALID,22.465,VALID,72,VALID,0,
2012-03-23, 03:27:04,VALID,1009.72,VALID,0,VALID,104,VALID,0.112112,VALID,22.4844,VALID,72,VALID,0,
2012-03-23, 03:28:04,VALID,1009.72,VALID,0,VALID,104,VALID,0,VALID,22.4844,VALID,72,VALID,0,
2012-03-23, 03:29:04,VALID,1009.75,VALID,0,VALID,104,VALID,0.112112,VALID,22.4844,VALID,72,VALID,0,
2012-03-23, 03:30:04,VALID,1009.74,VALID,0,VALID,104,VALID,0.112112,VALID,22.465,VALID,72,VALID,0,
2012-03-23, 03:31:04,VALID,1009.74,VALID,0,VALID,104,VALID,0.112112,VALID,22.465,VALID,72,VALID,0,
2012-03-23, 03:32:05,VALID,1009.71,VALID,0,VALID,104,VALID,0.112112,VALID,22.465,VALID,72,VALID,0,
2012-03-23, 03:33:05,VALID,1009.71,VALID,0,VALID,104,VALID,0,VALID,22.4861,VALID,72,VALID,0.028125,
2012-03-23, 03:34:05,VALID,1009.68,VALID,0,VALID,104,VALID,0,VALID,22.4844,VALID,72,VALID,0,
2012-03-23, 03:35:05,VALID,1009.69,VALID,0,VALID,104,VALID,0.112112,VALID,22.4844,VALID,72,VALID,0,
2012-03-23, 03:36:05,VALID,1009.7,VALID,0,VALID,104,VALID,0,VALID,22.4861,VALID,72,VALID,0,
2012-03-23, 03:37:05,VALID,1009.7,VALID,0,VALID,104,VALID,0,VALID,22.4878,VALID,72,VALID,0,
2012-03-23, 03:38:05,VALID,1009.67,VALID,0,VALID,104,VALID,0,VALID,22.5073,VALID,72,VALID,0,
2012-03-23, 03:39:05,VALID,1009.68,VALID,0,VALID,104,VALID,0,VALID,22.5056,VALID,72,VALID,0,
2012-03-23, 03:40:05,VALID,1009.68,VALID,0,VALID,104,VALID,0,VALID,22.5463,VALID,72,VALID,0.113281,
2012-03-23, 03:41:05,VALID,1009.68,VALID,0,VALID,104,VALID,0,VALID,22.5446,VALID,72,VALID,0.282031,
2012-03-23, 03:42:05,VALID,1009.68,VALID,0,VALID,104,VALID,0,VALID,22.5446,VALID,72,VALID,0.160156,
2012-03-23, 03:43:05,VALID,1009.68,VALID,0,VALID,104,VALID,0,VALID,22.5056,VALID,72,VALID,0,
2012-03-23, 03:44:05,VALID,1009.7,VALID,0,VALID,104,VALID,0,VALID,22.5056,VALID,72,VALID,0,
2012-03-23, 03:45:05,VALID,1009.75,VALID,0,VALID,104,VALID,0,VALID,22.5056,VALID,72,VALID,0,
2012-03-23, 03:46:05,VALID,1009.76,VALID,0,VALID,104,VALID,0,VALID,22.5268,VALID,72,VALID,0.349219,
2012-03-23, 03:47:05,VALID,1009.79,VALID,0,VALID,104,VALID,0,VALID,22.5268,VALID,72,VALID,0.308203,
2012-03-23, 03:48:05,VALID,1009.8,VALID,0,VALID,104,VALID,0,VALID,22.5251,VALID,72,VALID,0.246484,
2012-03-23, 03:49:05,VALID,1009.83,VALID,0,VALID,104,VALID,0,VALID,22.5056,VALID,72,VALID,0.245312,
2012-03-23, 03:50:05,VALID,1009.84,VALID,0,VALID,104,VALID,0,VALID,22.5056,VALID,72,VALID,0.253516,
2012-03-23, 03:51:05,VALID,1009.86,VALID,0,VALID,104,VALID,0,VALID,22.5056,VALID,72,VALID,0.500391,
2012-03-23, 03:52:05,VALID,1009.87,VALID,0,VALID,104,VALID,0,VALID,22.5056,VALID,72,VALID,0.519922,
2012-03-23, 03:53:05,VALID,1009.88,VALID,0,VALID,104,VALID,0,VALID,22.5446,VALID,68,VALID,0.324609,
2012-03-23, 03:54:05,VALID,1009.9,VALID,0,VALID,104,VALID,0,VALID,22.5446,VALID,68,VALID,0.283594,
2012-03-23, 03:55:05,VALID,1009.88,VALID,0,VALID,104,VALID,0,VALID,22.5251,VALID,69,VALID,0.0707031,
2012-03-23, 03:56:05,VALID,1009.86,VALID,0,VALID,104,VALID,0,VALID,22.5446,VALID,69,VALID,0,
2012-03-23, 03:57:05,VALID,1009.87,VALID,0,VALID,104,VALID,0,VALID,22.564,VALID,68,VALID,0.0210938,
2012-03-23, 03:58:05,VALID,1009.88,VALID,0,VALID,104,VALID,0,VALID,22.603,VALID,68,VALID,0.166797,
2012-03-23, 03:59:05,VALID,1009.88,VALID,0,VALID,104,VALID,0,VALID,22.603,VALID,68,VALID,0,
2012-03-23, 04:00:05,VALID,1009.86,VALID,0,VALID,104,VALID,0,VALID,22.6225,VALID,68,VALID,0,
2012-03-23, 04:01:05,VALID,1009.88,VALID,0,VALID,104,VALID,0,VALID,22.6225,VALID,68,VALID,0.00507812,
2012-03-23, 04:02:05,VALID,1009.89,VALID,0,VALID,104,VALID,0,VALID,22.6225,VALID,69,VALID,0,
2012-03-23, 04:03:05,VALID,1009.86,VALID,0,VALID,104,VALID,0,VALID,22.603,VALID,68,VALID,0,
2012-03-23, 04:04:05,VALID,1009.86,VALID,0,VALID,104,VALID,0,VALID,22.6225,VALID,68,VALID,0.273828,